FW4030 Weather Reports


Display with metric or nautical units.
time (UTC)temp
F
wind
direction
speed
MPH
gust
MPH
rain 1hr
in
rain 24hr
in
rain mn
in
humidity
%
barometer
mb
20260507081623 62 174 1.0 4.0 0.00 0.00 0.00 70 1026.2
20260507080647 61 180 6.0 8.0 0.00 0.00 0.00 72 1026.3
20260507075725 59 180 0.0 4.0 0.00 0.00 0.00 72 1026.1
20260507073725 57 180 1.0 4.0 0.00 0.00 0.00 76 1026.1
20260507072823 56 180 4.0 5.0 0.00 0.00 0.00 77 1026.1
20260507071727 55 166 1.0 3.0 0.00 0.00 0.00 78 1026.0
20260507070727 54 164 4.0 7.0 0.00 0.00 0.00 80 1026.0
20260507065725 53 180 2.0 5.0 0.00 0.00 0.00 82 1026.0
20260507064727 51 180 3.0 5.0 0.00 0.00 0.00 86 1025.9
20260507063825 49 180 4.0 6.0 0.00 0.00 0.00 89 1025.7
20260507062826 47 180 3.0 6.0 0.00 0.00 0.00 90 1025.6
20260507061825 47 180 4.0 6.0 0.00 0.00 0.00 90 1025.5
20260507060826 46 180 1.0 4.0 0.00 0.00 0.00 91 1025.4
20260507055827 46 180 1.0 4.0 0.00 0.00 0.00 92 1025.4
20260507054826 45 180 2.0 5.0 0.00 0.00 0.00 93 1025.4
20260507053826 45 180 4.0 6.0 0.00 0.00 0.00 93 1025.2
20260507053725 45 180 4.0 6.0 0.00 0.00 0.00 93 1025.2
20260507052824 45 180 3.0 5.0 0.00 0.00 0.00 93 1025.1
20260507051826 44 180 4.0 5.0 0.00 0.00 0.00 94 1025.0
20260507045827 44 180 3.0 4.0 0.00 0.00 0.00 94 1024.7
20260507044848 44 180 2.0 3.0 0.00 0.00 0.00 94 1024.5
20260507044725 44 180 1.0 3.0 0.00 0.00 0.00 94 1024.6
20260507043725 44 180 2.0 5.0 0.00 0.00 0.00 94 1024.5
20260507042726 44 180 1.0 4.0 0.00 0.00 0.00 94 1024.3
20260507041725 44 180 3.0 5.0 0.00 0.00 0.00 94 1024.3
20260507040727 44 180 3.0 4.0 0.00 0.00 0.00 94 1024.3
20260507034824 45 180 2.0 5.0 0.00 0.00 0.00 94 1024.2
20260507033824 45 180 3.0 6.0 0.00 0.00 0.00 93 1024.2
20260507032826 45 180 3.0 5.0 0.00 0.00 0.00 93 1024.1
20260507031825 45 180 1.0 3.0 0.00 0.00 0.00 93 1024.1
20260507031725 45 180 1.0 4.0 0.00 0.00 0.00 92 1024.1
20260507030724 45 180 2.0 5.0 0.00 0.00 0.00 93 1024.0
20260507025823 46 180 3.0 5.0 0.00 0.00 0.00 93 1023.9
20260507025724 46 180 3.0 4.0 0.00 0.00 0.00 93 1024.0
20260507025626 46 180 2.0 5.0 0.00 0.00 0.00 93 1024.0
20260507024724 46 180 1.0 4.0 0.00 0.00 0.00 93 1024.0
20260507023630 46 180 2.0 5.0 0.00 0.00 0.00 93 1023.9
20260507022627 46 180 2.0 5.0 0.00 0.00 0.00 93 1024.0
20260507021625 46 180 2.0 4.0 0.00 0.00 0.00 93 1023.8
20260507020626 46 180 2.0 4.0 0.00 0.00 0.00 93 1023.7
20260507015628 46 180 1.0 3.0 0.00 0.00 0.00 93 1023.7
20260507012726 47 180 3.0 6.0 0.00 0.00 0.00 93 1023.4
20260507011724 47 180 1.0 3.0 0.00 0.00 0.00 93 1023.4
20260507011625 47 180 2.0 5.0 0.00 0.00 0.00 93 1023.4
20260507010724 47 180 0.0 1.0 0.00 0.00 0.00 93 1023.4
20260507005724 47 180 3.0 5.0 0.00 0.00 0.00 94 1023.5
20260507004725 47 180 1.0 4.0 0.00 0.00 0.00 94 1023.3
20260507001827 46 180 0.0 0.0 0.00 0.00 0.00 93 1023.3
20260507000826 46 180 0.0 0.0 0.00 0.00 0.00 93 1023.2
20260506235825 47 180 0.0 1.0 0.00 0.00 0.00 93 1023.2
20260506234825 47 180 0.0 0.0 0.00 0.00 0.00 93 1023.2
20260506233825 47 180 2.0 3.0 0.00 0.00 0.00 93 1023.2
20260506232824 47 180 2.0 4.0 0.00 0.00 0.00 93 1023.0
20260506225824 47 180 3.0 6.0 0.00 0.00 0.00 94 1022.9
20260506224825 47 180 1.0 3.0 0.00 0.00 0.00 94 1022.8
20260506224725 47 180 2.0 4.0 0.00 0.00 0.00 94 1022.8
20260506223725 47 180 2.0 4.0 0.00 0.00 0.00 95 1022.8
20260506222725 47 180 3.0 5.0 0.00 0.00 0.00 95 1022.8
20260506221825 47 180 3.0 5.0 0.00 0.00 0.00 94 1022.7
20260506220827 47 180 1.0 2.0 0.00 0.00 0.00 94 1022.8
20260506215834 47 180 2.0 3.0 0.00 0.00 0.00 94 1022.8
20260506214837 47 180 1.0 2.0 0.00 0.00 0.00 94 1022.7
20260506212934 47 180 2.0 2.0 0.00 0.00 0.00 94 1022.5
20260506210937 46 180 3.0 4.0 0.00 0.00 0.00 93 1022.6
20260506205935 46 180 2.0 2.0 0.00 0.00 0.00 93 1022.6
20260506205834 46 180 0.0 2.0 0.00 0.00 0.00 93 1022.6
20260506204835 46 180 0.0 0.0 0.00 0.00 0.00 93 1022.5
20260506203836 46 180 1.0 2.0 0.00 0.00 0.00 93 1022.5
20260506203735 46 180 2.0 3.0 0.00 0.00 0.00 93 1022.5
20260506202736 46 180 2.0 2.0 0.00 0.00 0.00 93 1022.5
20260506201735 46 180 0.0 0.0 0.00 0.00 0.00 92 1022.4
20260506200833 47 180 0.0 0.0 0.00 0.00 0.00 92 1022.3
20260506195836 47 180 0.0 1.0 0.00 0.00 0.00 92 1022.2
20260506194835 47 180 1.0 2.0 0.00 0.00 0.00 92 1022.3
20260506193835 47 180 0.0 1.0 0.00 0.00 0.00 92 1022.1
20260506192836 47 180 2.0 3.0 0.00 0.00 0.00 92 1022.0
20260506191934 48 180 0.0 0.0 0.00 0.00 0.00 91 1021.9
20260506190936 48 180 1.0 3.0 0.00 0.00 0.00 91 1021.8
20260506185934 48 180 2.0 4.0 0.00 0.00 0.00 91 1021.7
20260506185833 48 180 1.0 3.0 0.00 0.00 0.00 91 1021.8
20260506185736 48 151 1.0 3.0 0.00 0.00 0.00 91 1021.7
20260506184834 48 176 3.0 5.0 0.00 0.00 0.00 92 1021.6
20260506183834 48 180 2.0 7.0 0.00 0.00 0.00 93 1021.4
20260506183733 48 180 2.0 7.0 0.00 0.00 0.00 93 1021.4
20260506182736 48 180 2.0 4.0 0.00 0.00 0.00 94 1021.4
20260506175836 48 178 4.0 7.0 0.00 0.00 0.00 96 1021.0
20260506174935 48 180 2.0 5.0 0.00 0.00 0.00 96 1020.8
20260506174033 48 180 2.0 3.0 0.00 0.00 0.00 96 1020.8
20260506173035 47 180 2.0 4.0 0.00 0.00 0.00 96 1020.7
20260506171035 48 180 2.0 3.0 0.00 0.00 0.00 95 1020.6
20260506170133 48 180 3.0 6.0 0.00 0.00 0.00 95 1020.5
20260506170036 48 180 2.0 4.0 0.00 0.00 0.00 95 1020.5
20260506165035 48 161 3.0 7.0 0.00 0.00 0.00 94 1020.5
20260506162035 48 176 2.0 7.0 0.00 0.00 0.00 94 1020.4
20260506161035 48 180 2.0 5.0 0.00 0.00 0.00 94 1020.2
20260506160036 48 166 3.0 6.0 0.00 0.00 0.00 95 1020.3
20260506155938 48 180 0.0 3.0 0.00 0.00 0.00 95 1020.3
20260506154934 48 180 3.0 4.0 0.00 0.00 0.00 95 1020.3
20260506153837 48 180 4.0 6.0 0.00 0.00 0.00 95 1020.4
20260506152934 48 180 4.0 6.0 0.00 0.00 0.00 96 1020.3
20260506151935 48 180 4.0 7.0 0.00 0.00 0.00 96 1020.2
20260506144033 48 180 4.0 7.0 0.00 0.00 0.00 96 1020.0
20260506143036 48 115 0.0 5.0 0.00 0.00 0.00 96 1020.0
20260506142936 48 180 3.0 5.0 0.00 0.00 0.00 96 1020.0
20260506141037 48 180 4.0 9.0 0.00 0.00 0.00 96 1020.0
20260506140039 48 158 2.0 9.0 0.00 0.00 0.00 96 1020.0
20260506135033 48 180 3.0 6.0 0.00 0.00 0.00 96 1019.8
20260506134035 48 180 5.0 8.0 0.00 0.00 0.00 96 1019.9
20260506133037 48 101 1.0 3.0 0.00 0.00 0.00 95 1019.8
20260506132036 48 174 2.0 5.0 0.00 0.00 0.00 96 1019.8
20260506131134 48 166 1.0 3.0 0.00 0.00 0.00 96 1019.8
20260506130133 48 133 1.0 3.0 0.00 0.00 0.00 96 1019.7
20260506125135 47 180 1.0 4.0 0.00 0.00 0.00 96 1019.7
20260506124134 47 176 2.0 7.0 0.00 0.00 0.00 96 1019.7
20260506123134 47 169 4.0 7.0 0.00 0.00 0.00 96 1019.5
20260506122234 47 180 3.0 5.0 0.00 0.00 0.00 95 1019.5
20260506122135 47 180 3.0 6.0 0.00 0.00 0.00 95 1019.5
20260506121135 47 172 3.0 5.0 0.00 0.00 0.00 95 1019.5
20260506120136 48 174 4.0 9.0 0.00 0.00 0.00 95 1019.4
20260506114134 48 179 2.0 5.0 0.00 0.00 0.00 96 1019.3
20260506112137 47 172 3.0 6.0 0.00 0.00 0.00 96 1019.3
20260506111135 47 180 3.0 7.0 0.00 0.00 0.00 96 1019.2
20260506110135 47 161 1.0 4.0 0.00 0.00 0.00 95 1019.3
20260506105135 47 161 1.0 5.0 0.00 0.00 0.00 95 1019.3
20260506104135 47 166 4.0 7.0 0.00 0.00 0.00 95 1019.3
20260506103137 47 164 4.0 7.0 0.00 0.00 0.00 96 1019.2
20260506102234 47 172 1.0 3.0 0.00 0.00 0.00 96 1019.1
20260506101233 47 176 4.0 8.0 0.00 0.00 0.00 96 1019.0
20260506100235 47 158 2.0 6.0 0.00 0.00 0.00 95 1018.9
20260506095236 47 141 2.0 5.0 0.00 0.00 0.00 95 1018.8
20260506094333 47 161 5.0 9.0 0.00 0.00 0.00 96 1018.9
20260506093333 47 172 5.0 10.0 0.00 0.00 0.00 96 1018.6
20260506093235 47 178 4.0 10.0 0.00 0.00 0.00 96 1018.6
20260506093135 47 180 6.0 11.0 0.00 0.00 0.00 96 1018.6
20260506092135 47 180 7.0 13.0 0.00 0.00 0.00 97 1018.5
20260506091033 47 176 6.0 14.0 0.00 0.00 0.00 97 1018.6
20260506090038 47 176 5.0 9.0 0.00 0.00 0.00 97 1018.3
20260506083035 48 180 4.0 7.0 0.00 0.00 0.00 98 1018.1
20260506082934 48 180 1.0 5.0 0.00 0.00 0.00 98 1018.1